User: anonymous   Login
Location: Winnipeg
(49.8830°N, 97.1670°W)
Time: 22:44:39
(UTC-05:00)
Language:

ISS - Orbit

View from above orbital plane
View from above orbital plane
View from above satellite
View from above satellite

Ground track
Ground track

The orbit data is extracted from the following two-line orbital elements,

1 25544U 98067A   21132.87001400  .00000309  00000-0  13771-4 0  9994
2 25544  51.6441 157.4090 0003011 354.4305  64.8008 15.48991986283120
Epoch (UTC): 12 May 2021 20:52:49
Eccentricity: 0.0003011
inclination: 51.6441°
perigee height: 417 km
apogee height: 422 km
right ascension of ascending node: 157.4090°
argument of perigee: 354.4305°
revolutions per day: 15.48991986
mean anomaly at epoch: 64.8008°
orbit number at epoch: 28312

The dashed part of the orbit path shows where the satellite is in the earth's shadow,  

DLR